International Skating Union - Official Site

ISU World Cup Heerenveen
December 9-11, 2016

Draw | Lap Times | Index | World Cup

Referee: Hanjo  HEIDEMAN  (NED)
Starter: Jyrki  JÄÄSKELÄINEN  (FIN)
StartTime: EndTime: Air Temp: Ice Temp: Humidity:
09:20 10:04 14.7℃ -7.1℃ 30%
Result 5000m Ladies Division B
Rankings as of Dec 11 2016 11:42PM
Rank: No.: Name: Nation: Time: Behind: Points:
1 268 Carlijn  Achtereekte NED NED 7:07.47200m - 21.01 - (21.0)
600m - 53.90 - (32.8)
1000m - 1:27.50 - (33.6)
1400m - 2:00.97 - (33.4)
1800m - 2:34.59 - (33.6)
2200m - 3:08.25 - (33.6)
2600m - 3:42.15 - (33.9)
3000m - 4:15.98 - (33.8)
3400m - 4:49.94 - (33.9)
3800m - 5:24.24 - (34.3)
4200m - 5:58.63 - (34.3)
4600m - 6:33.06 - (34.4)
5000m - 7:07.47 - (34.4)
32
2 206 Marina  Zueva BLR BLR 7:09.99200m - 21.54 - (21.5)
600m - 56.45 - (34.9)
1000m - 1:30.85 - (34.3)
1400m - 2:04.74 - (33.8)
1800m - 2:38.39 - (33.6)
2200m - 3:12.27 - (33.8)
2600m - 3:46.28 - (34.0)
3000m - 4:20.32 - (34.0)
3400m - 4:54.05 - (33.7)
3800m - 5:27.89 - (33.8)
4200m - 6:01.99 - (34.1)
4600m - 6:36.05 - (34.0)
5000m - 7:09.99 - (33.9)
2.52 27
3 312 Mia  Manganello USA USA 7:14.13200m - 21.57 - (21.5)
600m - 55.29 - (33.7)
1000m - 1:29.46 - (34.1)
1400m - 2:03.61 - (34.1)
1800m - 2:38.42 - (34.8)
2200m - 3:12.78 - (34.3)
2600m - 3:47.28 - (34.5)
3000m - 4:21.55 - (34.2)
3400m - 4:55.98 - (34.4)
3800m - 5:30.27 - (34.2)
4200m - 6:04.56 - (34.2)
4600m - 6:38.79 - (34.2)
5000m - 7:14.13 - (35.3)
6.66 23
4 301 Olga  Graf RUS RUS 7:14.68200m - 21.40 - (21.3)
600m - 55.00 - (33.6)
1000m - 1:29.07 - (34.0)
1400m - 2:03.45 - (34.3)
1800m - 2:37.59 - (34.1)
2200m - 3:11.99 - (34.4)
2600m - 3:46.25 - (34.2)
3000m - 4:20.92 - (34.6)
3400m - 4:55.33 - (34.4)
3800m - 5:30.11 - (34.7)
4200m - 6:04.53 - (34.4)
4600m - 6:39.67 - (35.1)
5000m - 7:14.68 - (35.0)
7.21 19
5 250 Mai  Kiyama JPN JPN 7:15.15200m - 21.76 - (21.7)
600m - 56.18 - (34.4)
1000m - 1:30.61 - (34.4)
1400m - 2:05.38 - (34.7)
1800m - 2:39.98 - (34.5)
2200m - 3:14.54 - (34.5)
2600m - 3:49.16 - (34.6)
3000m - 4:23.47 - (34.3)
3400m - 4:57.93 - (34.4)
3800m - 5:32.30 - (34.3)
4200m - 6:07.02 - (34.7)
4600m - 6:41.46 - (34.4)
5000m - 7:15.15 - (33.6)
7.68 15
6 203 Jelena  Peeters BEL BEL 7:15.93200m - 21.43 - (21.4)
600m - 54.99 - (33.5)
1000m - 1:29.00 - (34.0)
1400m - 2:02.92 - (33.9)
1800m - 2:36.90 - (33.9)
2200m - 3:11.35 - (34.4)
2600m - 3:45.99 - (34.6)
3000m - 4:20.50 - (34.5)
3400m - 4:55.26 - (34.7)
3800m - 5:29.63 - (34.3)
4200m - 6:04.44 - (34.8)
4600m - 6:39.94 - (35.5)
5000m - 7:15.93 - (35.9)
8.46 11
7 232 Nikola  Zdráhalova CZE CZE 7:17.09200m - 21.34 - (21.3)
600m - 55.97 - (34.6)
1000m - 1:30.54 - (34.5)
1400m - 2:05.47 - (34.9)
1800m - 2:40.55 - (35.0)
2200m - 3:15.96 - (35.4)
2600m - 3:50.88 - (34.9)
3000m - 4:25.88 - (35.0)
3400m - 5:00.42 - (34.5)
3800m - 5:34.81 - (34.3)
4200m - 6:09.06 - (34.2)
4600m - 6:43.00 - (33.9)
5000m - 7:17.09 - (34.1)
9.62 9
8 292 Magdalena  Czyszczon POL POL 7:18.39200m - 21.57 - (21.5)
600m - 55.17 - (33.6)
1000m - 1:30.39 - (35.2)
1400m - 2:05.18 - (34.7)
1800m - 2:40.44 - (35.2)
2200m - 3:15.34 - (34.9)
2600m - 3:50.64 - (35.3)
3000m - 4:25.43 - (34.7)
3400m - 4:59.87 - (34.4)
3800m - 5:33.99 - (34.1)
4200m - 6:08.61 - (34.6)
4600m - 6:43.51 - (34.8)
5000m - 7:18.39 - (34.9)
10.92 7
9 252 Fuyo  Matsuoka JPN JPN 7:19.76200m - 21.11 - (21.1)
600m - 53.10 - (31.9)
1000m - 1:25.87 - (32.7)
1400m - 1:59.37 - (33.5)
1800m - 2:33.32 - (33.9)
2200m - 3:07.87 - (34.5)
2600m - 3:43.14 - (35.2)
3000m - 4:18.65 - (35.5)
3400m - 4:54.72 - (36.0)
3800m - 5:30.62 - (35.8)
4200m - 6:06.47 - (35.8)
4600m - 6:43.16 - (36.6)
5000m - 7:19.76 - (36.5)
12.29 6
10 247 Shoko  Fujimura JPN JPN 7:20.38200m - 21.41 - (21.4)
600m - 54.34 - (32.9)
1000m - 1:28.14 - (33.7)
1400m - 2:02.27 - (34.1)
1800m - 2:37.06 - (34.7)
2200m - 3:12.05 - (34.9)
2600m - 3:47.29 - (35.2)
3000m - 4:22.54 - (35.2)
3400m - 4:57.74 - (35.1)
3800m - 5:33.04 - (35.3)
4200m - 6:08.46 - (35.4)
4600m - 6:44.11 - (35.6)
5000m - 7:20.38 - (36.2)
12.91 5
11 215 Mei  Han CHN CHN 7:23.21200m - 21.14 - (21.1)
600m - 54.80 - (33.6)
1000m - 1:29.86 - (35.0)
1400m - 2:05.13 - (35.2)
1800m - 2:39.65 - (34.5)
2200m - 3:14.31 - (34.6)
2600m - 3:49.17 - (34.8)
3000m - 4:24.34 - (35.1)
3400m - 4:59.66 - (35.3)
3800m - 5:35.20 - (35.5)
4200m - 6:11.26 - (36.0)
4600m - 6:47.50 - (36.2)
5000m - 7:23.21 - (35.7)
15.74 4
12 257 Nana  Takahashi JPN JPN 7:23.52200m - 21.32 - (21.3)
600m - 55.17 - (33.8)
1000m - 1:29.17 - (34.0)
1400m - 2:03.32 - (34.1)
1800m - 2:37.43 - (34.1)
2200m - 3:12.09 - (34.6)
2600m - 3:46.58 - (34.4)
3000m - 4:21.92 - (35.3)
3400m - 4:57.40 - (35.4)
3800m - 5:33.50 - (36.1)
4200m - 6:09.91 - (36.4)
4600m - 6:46.71 - (36.7)
5000m - 7:23.52 - (36.8)
16.05 3
13 285 Sofie Karoline  Haugen NOR NOR 7:26.67200m - 21.93 - (21.9)
600m - 55.84 - (33.9)
1000m - 1:29.73 - (33.8)
1400m - 2:03.64 - (33.9)
1800m - 2:37.77 - (34.1)
2200m - 3:12.00 - (34.2)
2600m - 3:46.84 - (34.8)
3000m - 4:22.13 - (35.2)
3400m - 4:58.38 - (36.2)
3800m - 5:35.06 - (36.6)
4200m - 6:12.04 - (36.9)
4600m - 6:49.50 - (37.4)
5000m - 7:26.67 - (37.1)
19.20 2
14 216 Jiachen  Hao CHN CHN 7:29.85200m - 21.03 - (21.0)
600m - 55.23 - (34.1)
1000m - 1:31.10 - (35.8)
1400m - 2:06.42 - (35.3)
1800m - 2:40.99 - (34.5)
2200m - 3:16.71 - (35.7)
2600m - 3:52.97 - (36.2)
3000m - 4:28.81 - (35.8)
3400m - 5:04.57 - (35.7)
3800m - 5:40.59 - (36.0)
4200m - 6:17.05 - (36.4)
4600m - 6:53.52 - (36.4)
5000m - 7:29.85 - (36.3)
22.38 1
15 234 Saskia  Alusalu EST EST 7:32.06200m - 21.30 - (21.3)
600m - 55.54 - (34.2)
1000m - 1:31.08 - (35.5)
1400m - 2:06.46 - (35.3)
1800m - 2:42.20 - (35.7)
2200m - 3:17.54 - (35.3)
2600m - 3:53.58 - (36.0)
3000m - 4:29.74 - (36.1)
3400m - 5:06.02 - (36.2)
3800m - 5:42.56 - (36.5)
4200m - 6:18.98 - (36.4)
4600m - 6:55.35 - (36.3)
5000m - 7:32.06 - (36.7)
24.59 0
16 246 Mai  Abe JPN JPN 7:32.37200m - 22.13 - (22.1)
600m - 56.25 - (34.1)
1000m - 1:31.20 - (34.9)
1400m - 2:05.62 - (34.4)
1800m - 2:40.74 - (35.1)
2200m - 3:15.96 - (35.2)
2600m - 3:52.24 - (36.2)
3000m - 4:28.59 - (36.3)
3400m - 5:05.24 - (36.6)
3800m - 5:41.99 - (36.7)
4200m - 6:18.81 - (36.8)
4600m - 6:55.47 - (36.6)
5000m - 7:32.37 - (36.9)
24.90 0
17 286 Camilla  Lund NOR NOR 7:32.78200m - 21.82 - (21.8)
600m - 56.66 - (34.8)
1000m - 1:31.18 - (34.5)
1400m - 2:06.39 - (35.2)
1800m - 2:41.51 - (35.1)
2200m - 3:17.13 - (35.6)
2600m - 3:52.81 - (35.6)
3000m - 4:29.11 - (36.3)
3400m - 5:05.51 - (36.4)
3800m - 5:42.17 - (36.6)
4200m - 6:19.14 - (36.9)
4600m - 6:56.11 - (36.9)
5000m - 7:32.78 - (36.6)
25.31 0
18 201 Viola  Feichtner AUT AUT 7:33.27200m - 22.42 - (22.4)
600m - 58.25 - (35.8)
1000m - 1:33.66 - (35.4)
1400m - 2:08.98 - (35.3)
1800m - 2:44.15 - (35.1)
2200m - 3:19.39 - (35.2)
2600m - 3:54.72 - (35.3)
3000m - 4:30.16 - (35.4)
3400m - 5:05.95 - (35.7)
3800m - 5:42.46 - (36.5)
4200m - 6:19.38 - (36.9)
4600m - 6:56.39 - (37.0)
5000m - 7:33.27 - (36.9)
25.80 0
19 290 Karolina  Bosiek POL POL 7:38.47200m - 21.56 - (21.5)
600m - 56.22 - (34.6)
1000m - 1:31.55 - (35.3)
1400m - 2:06.49 - (34.9)
1800m - 2:41.54 - (35.0)
2200m - 3:17.05 - (35.5)
2600m - 3:53.24 - (36.1)
3000m - 4:29.88 - (36.6)
3400m - 5:06.83 - (36.9)
3800m - 5:44.51 - (37.6)
4200m - 6:22.56 - (38.0)
4600m - 7:00.61 - (38.0)
5000m - 7:38.47 - (37.8)
31.00 0
20 220 Jing  Liu CHN CHN 7:38.53200m - 21.48 - (21.4)
600m - 55.22 - (33.7)
1000m - 1:30.17 - (34.9)
1400m - 2:06.37 - (36.2)
1800m - 2:41.98 - (35.6)
2200m - 3:18.15 - (36.1)
2600m - 3:54.28 - (36.1)
3000m - 4:31.14 - (36.8)
3400m - 5:07.80 - (36.6)
3800m - 5:45.44 - (37.6)
4200m - 6:23.23 - (37.7)
4600m - 7:01.29 - (38.0)
5000m - 7:38.53 - (37.2)
31.06 0